Regional Weather Roundup
Issued by NWS New Orleans/Baton Rouge, LA

Home | Current Version | Previous Version | Text Only | Print | Product List | Glossary Off
Versions: 1 2 3 4 5 6 7 8 9 10 11 12 13 14 15 16 17 18 19 20 21 22 23 24 25 26 27 28 29 30 31 32 33 34 35 36 37 38 39 40 41 42 43 44 45 46 47 48 49 50

171
ASUS44 KLIX 300011
RWRLIX
NEW ORLEANS REGIONAL WEATHER ROUNDUP
NATIONAL WEATHER SERVICE NEW ORLEANS LA
700 PM CDT SUN MAR 29 2015

NOTE: "FAIR" INDICATES FEW OR NO CLOUDS BELOW 12,000 FEET WITH NO
      SIGNIFICANT WEATHER AND/OR OBSTRUCTIONS TO VISIBILITY.
      SKY/WX - SKY CONDITION AND SIGNIFICANT WEATHER.
      TMP - AIR TEMPERATURE.     DP    - DEWPOINT TEMPERATURE.
      RH  - RELATIVE HUMIDITY.   PRES  - PRESSURE.
      HI  - HEAT INDEX.          WCI   - WIND CHILL INDEX.

*  THESE STATIONS ARE NOT NWS OR FAA STATIONS AND ARE NOT UNDER
   NWS QUALITY CONTROL.

LAZ038-040-048-061>063-065>067-069-300100-
SOUTHEAST LOUISIANA

CITY           SKY/WX    TMP DP  RH WIND       PRES   REMARKS
N.O. AUDUBON     N/A     73  66  80 MISG        N/A
6HR MIN TEMP:  72; 6HR MAX TEMP:  80;

N.O. INTL ARPT PTCLDY    71  61  70 S12       30.19S
6HR MIN TEMP:  71; 6HR MAX TEMP:  77;

N.O. LAKEFRONT CLEAR     73  60  63 S16       30.20R
6HR MIN TEMP:  73; 6HR MAX TEMP:  78;

SLIDELL        CLOUDY    71  62  73 S10       30.19S
6HR MIN TEMP:  71; 6HR MAX TEMP:  75;

BATON ROUGE    CLEAR     74  56  53 SW15      30.17R
6HR MIN TEMP:  74; 6HR MAX TEMP:  81;

BOOTHVILLE     PTCLDY    70  62  76 SE12      30.23F
6HR MIN TEMP:  70; 6HR MAX TEMP:  74;

BELLE CHASSE   CLEAR     70  61  73 S12       30.20S
6HR MIN TEMP:  70; 6HR MAX TEMP:  76;

BOGALUSA*        N/A     71  59  65 S8G17     30.21R
6HR MIN TEMP:  71; 6HR MAX TEMP:  78;

GALLIANO*      MOCLDY    74  62  67 S5        30.21S
6HR MIN TEMP:  74; 6HR MAX TEMP:  78;

NEW ROADS*       N/A     73  57  56 S10       30.16S
6HR MIN TEMP:  73; 6HR MAX TEMP:  80;

GONZALES*        N/A     74  58  58 S8        30.18S
6HR MIN TEMP:  74; 6HR MAX TEMP:  80;

HAMMOND*       PTCLDY    73  61  64 SE6       30.19S
HOUMA*         NOT AVBL
PORT FOURCHON* NOT AVBL

$$

MSZ070-080>082-300100-
SOUTHERN MISSISSIPPI

CITY           SKY/WX    TMP DP  RH WIND       PRES   REMARKS
MCCOMB         MOCLDY    72  60  66 S14       30.16R
6HR MIN TEMP:  72; 6HR MAX TEMP:  77;

GULFPORT       CLOUDY    68  60  75 SE7       30.23S
6HR MIN TEMP:  66; 6HR MAX TEMP:  69;

BILOXI         CLOUDY    67  60  78 SE7       30.23S
6HR MIN TEMP:  67; 6HR MAX TEMP:  69;

PASCAGOULA     CLOUDY    65  58  78 SE9       30.25S
6HR MIN TEMP:  65; 6HR MAX TEMP:  70;

STENNIS ARPT*  MOCLDY    66  57  72 S12       30.21F

$$

COASTAL OBSERVATIONS
LAKE AND NEARSHORE STATIONS

STATION/POSITION TIME  TEMP    WIND        PRES    WAVE
                       AIR SEA DIR/SP/G            HT/PER
                 (UTC) (F)     (DEG/KT/KT) (MB)    (FT/S)
PASCAGOULA       2300   67     140/  9/ 13 1023.9
WAVELAND YACHT   2300   67 65  160/ 12/ 14 1023.3
GRAND ISLE       2300      70  150/  6/ 12 1023.0
SOUTHWEST PASS   2300      54  140/ 11/ 18 1023.8
NEW CANAL        2300   74     200/  8/ 14 1022.8
SHELL BEACH      2300   71 69  150/ 14/ 17 1023.0

OFFSHORE STATIONS

STATION/POSITION TIME  TEMP    WIND        PRES    WAVE
                       AIR SEA DIR/SP/G            HT/PER
                 (UTC) (F)     (DEG/KT/KT) (MB)    (FT/S)
64 S DAUPHIN ISL 2350   69 71  170/ 14/ 17 1024.7    3/ 5

$$




USA.gov is the U.S. government's official web portal to all federal, state and local government web resources and services.